[[{"header":{"parameterUnit":"m.s-1","parameterCategory":1,"la1":30.2991,"la2":30.254,"lo1":-89.0895,"lo2":-89.0444,"dy":0.0017,"dx":0.0017,"nx":28,"ny":28,"refTime":"2024-07-17T09:00:00:Z","depth":0,"parameterNumber":2,"parameterNumberName":"U-component_of_WINDS"},"data":[0,0,0,0,0,0,0,0,0,0,0,0,0,0,0,0,0,0,0,0,0,0,0,0,0,0,0,0,0,0,0,0,0,0,0,0,0,0,0,0,0,0,0,0,0,0,0,0,0,0,0,0,0,0,0,0,0,0,1.1724,1.1725,0,1.1824,1.1825,1.1827,1.1868,1.1868,1.1867,1.1867,1.1974,1.1977,1.198,0,0,0,0,0,0,0,0,0,0,0,0,0,1.1571,1.1574,1.1724,1.1725,1.1726,1.1824,1.1825,1.1827,1.1868,1.1868,1.1867,1.1867,1.1973,1.1976,1.198,0,0,0,0,0,0,0,0,0,0,0,0,0,1.1651,1.1575,1.1724,1.1758,1.1763,1.1824,1.1825,1.1827,1.1868,1.1868,1.1867,1.1867,1.1972,1.1976,1.1981,1.2016,0,0,1.1995,1.1997,0,0,0,0,0,0,0,0,1.1647,1.1657,1.1752,1.1756,1.1761,1.1833,1.1811,1.1891,1.1868,1.1828,1.1867,1.1867,1.1928,1.1936,1.1955,1.2021,1.2025,1.1995,1.1998,1.2,1.2001,0,0,0,0,0,0,0,1.1641,1.1653,1.1764,1.1753,1.1759,1.177,1.1781,1.1826,1.1879,1.1831,1.1835,1.1846,1.193,1.1951,1.1958,1.2027,1.1995,1.1999,1.2002,1.2004,1.2127,1.2127,0,0,0,0,0,0,1.1629,1.1648,1.176,1.1767,1.1702,1.1773,1.1786,1.181,1.1878,1.1888,1.1846,1.1847,1.1943,1.1953,1.1962,1.2008,1.2,1.2004,1.2007,1.2126,1.2127,1.2127,0,0,0,0,0,0,1.1626,1.1639,1.1756,1.1708,1.1724,1.1776,1.1804,1.1812,1.1833,1.1889,1.1899,1.1857,1.1943,1.1956,1.2002,1.2012,1.2006,1.201,1.2126,1.2126,1.2127,1.21,0,0,0,0,0,0,1.1621,1.1637,1.165,1.1708,1.1726,1.1793,1.1804,1.1815,1.1841,1.1843,1.1903,1.1912,1.1944,1.1995,1.2007,1.2019,1.2014,1.2125,1.2126,1.2127,1.21,1.2099,1.2099,0,0,0,0,0,1.1615,1.1639,1.1651,1.1664,1.1743,1.1794,1.1804,1.1839,1.1841,1.1856,1.1891,1.191,1.2009,1.1999,1.2013,1.2026,1.2125,1.2126,1.2127,1.21,1.2099,1.2099,0,0,0,0,0,0,1.1583,1.1648,1.1661,1.1704,1.1743,1.1801,1.1819,1.1838,1.1878,1.1879,1.1922,1.1935,1.1978,1.2007,1.1995,1.2064,1.2068,1.2072,1.2043,1.2043,1.2043,1.2035,1.2018,0,0,0,0,0,1.158,1.1615,1.167,1.1703,1.1721,1.1767,1.179,1.1814,1.1856,1.1873,1.1913,1.1954,1.1995,1.2021,1.2061,1.2104,1.2118,1.212,1.212,1.2119,1.2122,1.2147,1.2149,1.2131,1.2131,1.2131,0,0,1.1576,1.1616,1.1635,1.1697,1.173,1.1765,1.178,1.1818,1.1845,1.188,1.1925,1.1955,1.2005,1.2049,1.2071,1.2075,1.213,1.2121,1.212,1.2123,1.2149,1.215,1.2152,1.2132,1.2132,1.2132,0,0,1.1587,1.162,1.165,1.1683,1.1732,1.1762,1.177,1.1825,1.1846,1.1892,1.1919,1.1952,1.2021,1.2055,1.2082,1.2105,1.2124,1.2117,1.2115,1.2139,1.214,1.2141,1.215,1.2152,1.212,1.2119,1.2119,0,1.1575,1.1629,1.1664,1.17,1.1727,1.1758,1.179,1.1821,1.1881,1.1899,1.1902,1.1989,1.2025,1.2078,1.2083,1.2104,1.2114,1.211,1.2137,1.2139,1.214,1.2149,1.2152,1.2118,1.2118,1.2119,1.2119,0,1.1613,1.165,1.1669,1.1725,1.1754,1.1787,1.1829,1.1854,1.1875,1.1905,1.1953,1.1996,1.2046,1.206,1.2082,1.2117,1.2118,1.2128,1.2133,1.214,1.2149,1.2153,1.2117,1.2117,1.2117,1.2118,0,0,1.1606,1.168,1.1687,1.1713,1.1769,1.1799,1.1835,1.1882,1.1903,1.1944,1.1975,1.2032,1.2042,1.2072,1.2098,1.2119,1.2134,1.2127,1.2129,1.2127,1.2176,1.2168,1.2171,1.2147,1.2148,1.2149,1.2172,0,1.1624,1.1687,1.172,1.177,1.1805,1.1835,1.1866,1.1905,1.1934,1.1969,1.2002,1.2041,1.2051,1.207,1.2092,1.2128,1.2145,1.2126,1.2178,1.2179,1.2164,1.2176,1.2167,1.2187,1.2176,1.2176,1.2177,0,1.1654,1.1692,1.1745,1.1798,1.1814,1.1841,1.1887,1.1919,1.1964,1.1984,1.2017,1.2042,1.2081,1.2083,1.2139,1.2125,1.2148,1.2169,1.2171,1.2177,1.2178,1.2183,1.2195,1.2198,1.2183,1.2182,1.2182,0,1.1643,1.1709,1.1749,1.177,1.1833,1.1851,1.1878,1.1922,1.1949,1.1989,1.2007,1.2052,1.2077,1.2112,1.2149,1.2147,1.2201,1.2206,1.222,1.2219,1.223,1.2229,1.2246,1.2244,1.2244,1.2244,1.2244,0,1.166,1.1691,1.1745,1.177,1.1806,1.1844,1.1879,1.1909,1.1948,1.198,1.201,1.2039,1.2086,1.2121,1.2151,1.2192,1.2204,1.2221,1.2229,1.2219,1.2217,1.2235,1.2235,1.2245,1.2245,1.2244,1.2244,0,1.1655,1.1692,1.1738,1.1793,1.1807,1.1831,1.1879,1.1905,1.1935,1.1975,1.1987,1.2035,1.2078,1.2118,1.2176,1.2196,1.2238,1.2248,1.2223,1.2227,1.2238,1.2236,1.2268,1.2274,1.2267,1.2267,1.2267,0,1.1663,1.1688,1.1745,1.1768,1.1794,1.183,1.1857,1.1896,1.1923,1.1975,1.1995,1.204,1.2078,1.2146,1.2187,1.2232,1.2243,1.2251,1.225,1.2239,1.2244,1.2242,1.2245,1.225,1.225,1.225,1.225,0,1.1675,1.1692,1.1728,1.1772,1.1802,1.1839,1.1876,1.1893,1.1939,1.1968,1.2012,1.2041,1.21,1.2145,1.2194,1.2224,1.2245,1.225,1.2255,1.2246,1.223,1.2239,1.2221,1.2249,1.2249,1.2249,1.2249,1.2249,1.1677,1.17,1.1744,1.1784,1.1816,1.185,1.1876,1.191,1.1947,1.1997,1.2018,1.2062,1.2107,1.2175,1.2204,1.224,1.2245,1.2253,1.2255,1.2256,1.2254,1.2224,1.2249,1.225,1.225,1.225,1.225,0,1.169,1.1719,1.1756,1.1806,1.1838,1.1854,1.1896,1.1922,1.196,1.1999,1.2036,1.2087,1.213,1.2174,1.222,1.2241,1.2252,1.2252,1.2251,1.2258,1.2248,1.2238,1.2242,1.2242,1.2242,1.2242,1.2242,1.2242,1.17,1.174,1.1763,1.1819,1.1849,1.1892,1.1915,1.1946,1.1978,1.2033,1.2069,1.2096,1.2138,1.2187,1.2228,1.224,1.2256,1.2253,1.2268,1.2258,1.2258,1.2258,1.225,1.2256,1.2256,1.2275,1.2275,1.2275]},{"header":{"parameterUnit":"m.s-1","parameterCategory":1,"la1":30.2991,"la2":30.254,"lo1":-89.0895,"lo2":-89.0444,"dy":0.0017,"dx":0.0017,"nx":28,"ny":28,"refTime":"2024-07-17T09:00:00:Z","depth":0,"parameterNumber":3,"parameterNumberName":"V-component_of_WINDS"},"data":[0,0,0,0,0,0,0,0,0,0,0,0,0,0,0,0,0,0,0,0,0,0,0,0,0,0,0,0,0,0,0,0,0,0,0,0,0,0,0,0,0,0,0,0,0,0,0,0,0,0,0,0,0,0,0,0,0,0,2.515,2.515,0,2.514,2.514,2.514,2.515,2.515,2.5151,2.5151,2.5139,2.5138,2.5137,0,0,0,0,0,0,0,0,0,0,0,0,0,2.5173,2.5173,2.515,2.515,2.5149,2.514,2.514,2.514,2.515,2.515,2.5151,2.5151,2.5139,2.5138,2.5137,0,0,0,0,0,0,0,0,0,0,0,0,0,2.5163,2.5173,2.515,2.5153,2.5154,2.514,2.514,2.514,2.515,2.515,2.5151,2.5152,2.5139,2.5138,2.5137,2.5118,0,0,2.5134,2.5133,0,0,0,0,0,0,0,0,2.5164,2.5162,2.5153,2.5153,2.5153,2.5147,2.5144,2.5132,2.515,2.5151,2.5151,2.5152,2.5141,2.514,2.5136,2.5118,2.5117,2.5134,2.5133,2.5133,2.5132,0,0,0,0,0,0,0,2.5165,2.5163,2.5146,2.5153,2.5153,2.5154,2.5154,2.5141,2.5143,2.5151,2.5152,2.5151,2.5141,2.5137,2.5136,2.5117,2.5134,2.5133,2.5132,2.5132,2.5079,2.5079,0,0,0,0,0,0,2.5165,2.5163,2.5146,2.5145,2.516,2.5153,2.5153,2.5148,2.5143,2.5143,2.515,2.5151,2.5139,2.5137,2.5136,2.5111,2.5133,2.5132,2.5131,2.508,2.5079,2.5079,0,0,0,0,0,0,2.5166,2.5164,2.5146,2.5155,2.5153,2.5152,2.5147,2.5148,2.5144,2.5142,2.5142,2.5146,2.5139,2.5137,2.5122,2.5111,2.5131,2.513,2.5081,2.508,2.5079,2.5064,0,0,0,0,0,0,2.5166,2.5164,2.5158,2.5154,2.5152,2.5134,2.5147,2.5147,2.5143,2.5144,2.5139,2.5138,2.514,2.5124,2.5121,2.511,2.5129,2.5082,2.5081,2.5079,2.5065,2.5062,2.506,0,0,0,0,0,2.5167,2.5154,2.5157,2.5155,2.5145,2.5134,2.5132,2.5135,2.5142,2.5135,2.5133,2.5138,2.5113,2.5122,2.5119,2.5108,2.5083,2.5081,2.5079,2.5067,2.5063,2.506,0,0,0,0,0,0,2.5156,2.5154,2.5157,2.5143,2.5138,2.5135,2.5127,2.5131,2.5124,2.5125,2.5128,2.5126,2.511,2.5107,2.5118,2.5088,2.5099,2.5096,2.509,2.5087,2.5084,2.5084,2.5128,0,0,0,0,0,2.5152,2.5144,2.5142,2.5129,2.5127,2.5127,2.5123,2.5125,2.512,2.5118,2.5115,2.5109,2.5099,2.5093,2.5084,2.5065,2.5063,2.5056,2.5053,2.5051,2.5048,2.5035,2.5031,2.5073,2.5073,2.5073,0,0,2.5143,2.5141,2.5136,2.5127,2.5124,2.5114,2.5126,2.5116,2.5108,2.5116,2.5101,2.5099,2.5092,2.5074,2.5066,2.5072,2.5036,2.5049,2.5047,2.5046,2.5033,2.5029,2.5026,2.5072,2.5072,2.5072,0,0,2.5122,2.512,2.5109,2.5105,2.51,2.5099,2.5096,2.5092,2.5091,2.5077,2.5082,2.5072,2.5056,2.505,2.5045,2.5019,2.5023,2.5016,2.5002,2.4989,2.4986,2.4983,2.4971,2.4967,2.5014,2.5014,2.5014,0,2.5111,2.5098,2.5102,2.5091,2.5086,2.5093,2.5079,2.5075,2.5067,2.5063,2.5069,2.5048,2.5044,2.5024,2.5017,2.5013,2.5008,2.5017,2.4986,2.4983,2.498,2.4969,2.4965,2.5013,2.5013,2.5013,2.5014,0,2.5084,2.5075,2.5066,2.5058,2.5052,2.504,2.504,2.5033,2.5035,2.5034,2.5017,2.5013,2.5002,2.4997,2.5,2.4976,2.498,2.4986,2.4997,2.4975,2.4965,2.4961,2.5012,2.5012,2.5013,2.5013,0,0,2.5056,2.5049,2.5046,2.5041,2.5035,2.5027,2.5014,2.5004,2.4997,2.4991,2.4979,2.4964,2.4969,2.4963,2.4965,2.4954,2.493,2.4961,2.4961,2.4954,2.4902,2.4896,2.4891,2.4933,2.4932,2.4932,2.4901,0,2.5034,2.5013,2.5014,2.4994,2.4984,2.4989,2.4977,2.4971,2.4969,2.4959,2.4956,2.4945,2.4954,2.495,2.4939,2.4936,2.492,2.4938,2.492,2.4919,2.492,2.4886,2.488,2.4852,2.4898,2.4897,2.4897,0,2.5005,2.4997,2.4975,2.4969,2.4964,2.4954,2.4944,2.4935,2.4927,2.4926,2.4918,2.4921,2.4905,2.4917,2.4895,2.4907,2.49,2.4896,2.4895,2.4893,2.4906,2.4881,2.4843,2.4838,2.4891,2.4891,2.4891,0,2.4984,2.4968,2.4953,2.4949,2.4941,2.4933,2.493,2.4923,2.4916,2.4906,2.4901,2.4889,2.4883,2.4873,2.4871,2.488,2.4847,2.486,2.4844,2.4844,2.4837,2.4837,2.4796,2.4834,2.4834,2.4834,2.4835,0,2.4958,2.4944,2.4943,2.4933,2.4917,2.4918,2.4902,2.4898,2.4891,2.488,2.4884,2.4872,2.4871,2.4859,2.4857,2.4837,2.4835,2.4832,2.4831,2.4831,2.4831,2.4825,2.4826,2.4833,2.4834,2.4834,2.4834,0,2.4932,2.4931,2.4914,2.4908,2.4906,2.4894,2.4887,2.4877,2.4875,2.4859,2.4856,2.4852,2.4837,2.4834,2.4817,2.4816,2.4791,2.4794,2.4794,2.4794,2.4778,2.4778,2.473,2.4723,2.4768,2.4767,2.4767,0,2.4915,2.4904,2.4896,2.4889,2.4884,2.4873,2.4865,2.4866,2.4857,2.4846,2.4836,2.4822,2.4811,2.4786,2.4781,2.4766,2.4767,2.4751,2.4765,2.4764,2.4764,2.4764,2.4762,2.4748,2.4748,2.4747,2.4747,0,2.4883,2.4883,2.4873,2.4862,2.4853,2.4844,2.4835,2.4829,2.4827,2.4818,2.4803,2.4794,2.4775,2.476,2.4745,2.474,2.4742,2.4743,2.4738,2.4737,2.4736,2.4734,2.4785,2.4744,2.4744,2.4744,2.4744,2.4745,2.486,2.485,2.4842,2.483,2.4823,2.4815,2.4804,2.48,2.4788,2.4773,2.4774,2.4757,2.4746,2.4727,2.472,2.4705,2.471,2.4704,2.4702,2.47,2.4697,2.474,2.4703,2.4703,2.4703,2.4703,2.4703,0,2.4827,2.4822,2.4811,2.4799,2.4788,2.4793,2.4783,2.4773,2.4758,2.4749,2.4737,2.4719,2.4703,2.4696,2.468,2.4669,2.467,2.4665,2.4665,2.4663,2.4695,2.47,2.4664,2.4664,2.4664,2.4664,2.4664,2.4664,2.4809,2.4791,2.4789,2.4767,2.4762,2.4746,2.4739,2.4731,2.4723,2.4702,2.469,2.4685,2.4675,2.4658,2.4644,2.4641,2.4634,2.4629,2.4627,2.4657,2.4661,2.4665,2.4669,2.4628,2.4628,2.4595,2.4595,2.4595]}]]